Time,TemperatureF,DewpointF,PressureIn,WindDirection,WindDirectionDegrees,WindSpeedMPH,WindSpeedGustMPH,Humidity,HourlyPrecipIn,Conditions,Clouds,dailyrainin,SoftwareType,DateUTC
2013-12-12 00:01:00,77.5,73.7,31.10,South,169,3.0,4.0,88,0.00,,,0.00,Wunderground v.1.15,2013-12-12 05:01:00,
2013-12-12 00:02:00,77.5,73.7,31.10,WSW,255,3.0,5.0,88,0.00,,,0.00,Wunderground v.1.15,2013-12-12 05:02:00,
2013-12-12 00:03:00,77.5,73.7,31.10,WNW,302,3.0,5.0,88,0.00,,,0.00,Wunderground v.1.15,2013-12-12 05:03:00,
2013-12-12 00:04:00,77.5,73.7,31.10,WSW,241,3.0,5.0,88,0.00,,,0.00,Wunderground v.1.15,2013-12-12 05:04:00,
2013-12-12 00:07:00,77.5,73.7,31.10,WSW,258,3.0,5.0,88,0.00,,,0.00,Wunderground v.1.15,2013-12-12 05:07:00,
2013-12-12 00:14:00,77.6,73.8,31.10,West,276,3.0,5.0,88,0.00,,,0.00,Wunderground v.1.15,2013-12-12 05:14:00,
2013-12-12 00:16:00,77.6,73.8,31.10,WNW,289,3.0,5.0,88,0.00,,,0.00,Wunderground v.1.15,2013-12-12 05:16:00,
2013-12-12 00:21:00,77.5,73.7,31.10,West,266,3.0,4.0,88,0.00,,,0.00,Wunderground v.1.15,2013-12-12 05:21:00,
2013-12-12 00:26:00,77.5,73.7,31.10,West,271,2.0,4.0,88,0.00,,,0.00,Wunderground v.1.15,2013-12-12 05:26:00,
2013-12-12 00:32:00,77.4,73.9,31.10,WNW,295,2.0,4.0,89,0.00,,,0.00,Wunderground v.1.15,2013-12-12 05:32:00,
2013-12-12 00:37:00,77.4,73.9,31.09,South,177,2.0,4.0,89,0.00,,,0.00,Wunderground v.1.15,2013-12-12 05:37:00,
2013-12-12 00:42:00,77.3,73.8,31.09,WSW,239,3.0,4.0,89,0.00,,,0.00,Wunderground v.1.15,2013-12-12 05:42:00,
2013-12-12 00:47:00,77.3,73.8,31.09,WSW,257,3.0,4.0,89,0.00,,,0.00,Wunderground v.1.15,2013-12-12 05:47:00,
2013-12-12 00:53:00,77.2,73.7,31.09,WNW,285,3.0,4.0,89,0.00,,,0.00,Wunderground v.1.15,2013-12-12 05:53:00,
2013-12-12 00:59:00,77.2,73.7,31.09,WNW,285,3.0,4.0,89,0.00,,,0.00,Wunderground v.1.15,2013-12-12 05:59:00,
2013-12-12 01:04:00,77.2,73.7,31.08,WNW,282,3.0,4.0,89,0.00,,,0.00,Wunderground v.1.15,2013-12-12 06:04:00,
2013-12-12 01:11:00,77.3,73.5,31.08,SSW,200,3.0,4.0,88,0.00,,,0.00,Wunderground v.1.15,2013-12-12 06:11:00,
2013-12-12 01:16:00,77.3,73.5,31.08,SW,214,2.0,4.0,88,0.00,,,0.00,Wunderground v.1.15,2013-12-12 06:16:00,
2013-12-12 01:21:00,77.3,73.5,31.08,West,276,2.0,5.0,88,0.00,,,0.00,Wunderground v.1.15,2013-12-12 06:21:00,
2013-12-12 01:27:00,77.3,73.5,31.08,WSW,256,3.0,5.0,88,0.00,,,0.00,Wunderground v.1.15,2013-12-12 06:27:00,
2013-12-12 01:33:00,77.4,73.6,31.08,West,269,3.0,5.0,88,0.00,,,0.00,Wunderground v.1.15,2013-12-12 06:33:00,
2013-12-12 01:39:00,77.3,73.5,31.08,WNW,288,3.0,5.0,88,0.00,,,0.00,Wunderground v.1.15,2013-12-12 06:39:00,
2013-12-12 01:45:00,77.3,73.5,31.08,West,280,2.0,4.0,88,0.00,,,0.00,Wunderground v.1.15,2013-12-12 06:45:00,
2013-12-12 01:51:00,77.3,73.5,31.08,NNW,329,2.0,4.0,88,0.00,,,0.00,Wunderground v.1.15,2013-12-12 06:51:00,
2013-12-12 01:57:00,77.3,73.1,31.07,WNW,293,3.0,4.0,87,0.00,,,0.00,Wunderground v.1.15,2013-12-12 06:57:00,
2013-12-12 02:02:00,77.2,73.0,31.07,NW,308,3.0,4.0,87,0.00,,,0.00,Wunderground v.1.15,2013-12-12 07:02:00,
2013-12-12 02:07:00,77.3,73.1,31.07,WNW,290,3.0,5.0,87,0.00,,,0.00,Wunderground v.1.15,2013-12-12 07:07:00,
2013-12-12 02:13:00,77.3,73.1,31.07,West,264,3.0,6.0,87,0.00,,,0.00,Wunderground v.1.15,2013-12-12 07:13:00,
2013-12-12 02:19:00,77.4,73.2,31.07,WSW,258,3.0,7.0,87,0.00,,,0.00,Wunderground v.1.15,2013-12-12 07:19:00,
2013-12-12 02:25:00,77.4,73.2,31.07,West,281,4.0,5.0,87,0.00,,,0.00,Wunderground v.1.15,2013-12-12 07:25:00,
2013-12-12 02:30:00,77.4,73.2,31.07,WNW,284,4.0,4.0,87,0.00,,,0.00,Wunderground v.1.15,2013-12-12 07:30:00,
2013-12-12 02:36:00,77.5,73.0,31.07,West,270,4.0,4.0,86,0.00,,,0.00,Wunderground v.1.15,2013-12-12 07:36:00,
2013-12-12 02:42:00,77.5,73.0,31.07,WNW,283,4.0,4.0,86,0.00,,,0.00,Wunderground v.1.15,2013-12-12 07:42:00,
2013-12-12 02:48:00,77.4,72.9,31.07,WNW,288,3.0,4.0,86,0.00,,,0.00,Wunderground v.1.15,2013-12-12 07:48:00,
2013-12-12 02:53:00,77.4,72.9,31.07,West,273,3.0,4.0,86,0.00,,,0.00,Wunderground v.1.15,2013-12-12 07:53:00,
2013-12-12 02:59:00,77.4,72.9,31.07,WNW,283,3.0,4.0,86,0.00,,,0.00,Wunderground v.1.15,2013-12-12 07:59:00,
2013-12-12 03:05:00,77.3,72.8,31.07,WNW,291,3.0,4.0,86,0.00,,,0.00,Wunderground v.1.15,2013-12-12 08:05:00,
2013-12-12 03:11:00,77.3,72.8,31.06,West,276,3.0,5.0,86,0.00,,,0.00,Wunderground v.1.15,2013-12-12 08:11:00,
2013-12-12 03:16:00,77.3,72.8,31.06,WNW,297,3.0,5.0,86,0.00,,,0.00,Wunderground v.1.15,2013-12-12 08:16:00,
2013-12-12 03:22:00,77.2,73.0,31.06,West,271,3.0,4.0,87,0.00,,,0.00,Wunderground v.1.15,2013-12-12 08:22:00,